• Em Portugal
  • Lista de países
  • Para 7 dias
  • Temperatura da água
  • Mapas de satélite
  • Mapa do tempo
  • Widgets de tempo
  • user-avatar
    Iniciar Sessão

    Previsão horária em Zandzhan

    Hoje, 20 Novembro, Segunda-feira

    Tempo Temperatura Precipitação Vento Pressão Humidade
    00:00 +7°C° 0 mm 2 m/s 616 mmHg 30%
    01:00 +7°C° 0 mm 2 m/s 616 mmHg 31%
    02:00 +6°C° 0 mm 2 m/s 615 mmHg 31%
    03:00 +6°C° 0 mm 2 m/s 615 mmHg 31%
    04:00 +6°C° 0 mm 2 m/s 615 mmHg 32%
    05:00 +6°C° 0 mm 2 m/s 615 mmHg 33%
    06:00 +6°C° 0 mm 2 m/s 616 mmHg 34%
    07:00 +7°C° 0 mm 2 m/s 616 mmHg 32%
    08:00 +8°C° 0 mm 2 m/s 616 mmHg 30%
    09:00 +9°C° 0 mm 3 m/s 617 mmHg 28%
    10:00 +10°C° 0 mm 3 m/s 617 mmHg 27%
    11:00 +12°C° 0 mm 4 m/s 617 mmHg 26%
    12:00 +13°C° 0 mm 4 m/s 617 mmHg 26%
    13:00 +13°C° 0 mm 5 m/s 617 mmHg 26%
    14:00 +14°C° 0 mm 5 m/s 617 mmHg 27%
    15:00 +13°C° 0 mm 5 m/s 616 mmHg 27%
    16:00 +12°C° 0,1 mm 5 m/s 616 mmHg 32%
    17:00 +11°C° 0,1 mm 4 m/s 616 mmHg 37%
    18:00 +10°C° 0,1 mm 4 m/s 616 mmHg 42%
    19:00 +10°C° 0,1 mm 4 m/s 616 mmHg 46%
    20:00 +9°C° 0,1 mm 3 m/s 615 mmHg 51%
    21:00 +9°C° 0,1 mm 3 m/s 615 mmHg 55%
    22:00 +9°C° 0,1 mm 3 m/s 615 mmHg 57%
    23:00 +8°C° 0,1 mm 3 m/s 615 mmHg 60%

    Amanhã, 21 Novembro, Terça-feira

    Tempo Temperatura Precipitação Vento Pressão Humidade
    00:00 +8°C° 0,1 mm 2 m/s 614 mmHg 62%
    01:00 +8°C° 0,5 mm 2 m/s 614 mmHg 64%
    02:00 +7°C° 0,5 mm 2 m/s 614 mmHg 67%
    03:00 +7°C° 0,5 mm 2 m/s 614 mmHg 69%
    04:00 +7°C° 0,7 mm 2 m/s 614 mmHg 71%
    05:00 +7°C° 0,7 mm 2 m/s 614 mmHg 73%
    06:00 +6°C° 0,7 mm 2 m/s 613 mmHg 75%
    07:00 +7°C° 0,3 mm 3 m/s 613 mmHg 73%
    08:00 +7°C° 0,3 mm 3 m/s 614 mmHg 70%
    09:00 +6°C° 0,3 mm 4 m/s 614 mmHg 68%
    10:00 +7°C° 0,1 mm 4 m/s 613 mmHg 64%
    11:00 +8°C° 0,1 mm 5 m/s 613 mmHg 60%
    12:00 +9°C° 0,1 mm 5 m/s 613 mmHg 55%
    13:00 +9°C° 0,1 mm 5 m/s 613 mmHg 55%
    14:00 +10°C° 0,1 mm 6 m/s 612 mmHg 55%
    15:00 +10°C° 0,1 mm 7 m/s 612 mmHg 54%
    16:00 +9°C° 0,1 mm 6 m/s 612 mmHg 57%
    17:00 +9°C° 0,1 mm 6 m/s 612 mmHg 61%
    18:00 +8°C° 0,1 mm 6 m/s 612 mmHg 64%
    19:00 +8°C° 0 mm 5 m/s 611 mmHg 66%
    20:00 +7°C° 0 mm 5 m/s 611 mmHg 68%
    21:00 +7°C° 0 mm 4 m/s 611 mmHg 69%
    22:00 +6°C° 0 mm 4 m/s 611 mmHg 72%
    23:00 +6°C° 0 mm 4 m/s 610 mmHg 74%

    Depois de amanhã, 22 Novembro, Quarta-feira

    Tempo Temperatura Precipitação Vento Pressão Humidade
    00:00 +6°C° 0 mm 4 m/s 610 mmHg 76%
    01:00 +5°C° 0 mm 3 m/s 610 mmHg 78%
    02:00 +5°C° 0 mm 3 m/s 610 mmHg 80%
    03:00 +5°C° 0 mm 3 m/s 609 mmHg 82%
    04:00 +4°C° 0 mm 3 m/s 609 mmHg 83%
    05:00 +4°C° 0 mm 3 m/s 609 mmHg 85%
    06:00 +4°C° 0 mm 3 m/s 609 mmHg 86%
    07:00 +5°C° 0 mm 4 m/s 609 mmHg 81%
    08:00 +6°C° 0 mm 5 m/s 610 mmHg 76%
    09:00 +7°C° 0 mm 5 m/s 610 mmHg 71%
    10:00 +8°C° 0 mm 6 m/s 610 mmHg 65%
    11:00 +9°C° 0 mm 7 m/s 610 mmHg 58%
    12:00 +9°C° 0 mm 8 m/s 610 mmHg 52%
    13:00 +10°C° 0,1 mm 8 m/s 610 mmHg 49%
    14:00 +10°C° 0,1 mm 8 m/s 610 mmHg 46%
    15:00 +10°C° 0,1 mm 8 m/s 610 mmHg 43%
    16:00 +9°C° 0,2 mm 7 m/s 610 mmHg 48%
    17:00 +8°C° 0,2 mm 6 m/s 610 mmHg 52%
    18:00 +7°C° 0,2 mm 5 m/s 610 mmHg 56%
    19:00 +6°C° 0,2 mm 4 m/s 610 mmHg 59%
    20:00 +6°C° 0,2 mm 4 m/s 610 mmHg 63%
    21:00 +5°C° 0,2 mm 3 m/s 610 mmHg 66%
    22:00 +5°C° 0,2 mm 3 m/s 610 mmHg 69%
    23:00 +4°C° 0,2 mm 3 m/s 610 mmHg 72%

    23 Novembro, Quinta-feira

    Tempo Temperatura Precipitação Vento Pressão Humidade
    00:00 +4°C° 0,2 mm 3 m/s 610 mmHg 75%
    01:00 +3°C° 0,1 mm 3 m/s 610 mmHg 77%
    02:00 +3°C° 0,1 mm 3 m/s 610 mmHg 78%
    03:00 +3°C° 0,1 mm 3 m/s 610 mmHg 80%
    04:00 +3°C° 0,1 mm 2 m/s 610 mmHg 80%
    05:00 +3°C° 0,1 mm 2 m/s 610 mmHg 80%
    06:00 +2°C° 0,1 mm 2 m/s 610 mmHg 80%
    07:00 +2°C° 0 mm 3 m/s 610 mmHg 71%
    08:00 +2°C° 0 mm 3 m/s 611 mmHg 62%
    09:00 +3°C° 0 mm 4 m/s 611 mmHg 54%
    10:00 +3°C° 0 mm 5 m/s 611 mmHg 48%
    11:00 +3°C° 0 mm 5 m/s 611 mmHg 42%
    12:00 +4°C° 0 mm 6 m/s 611 mmHg 36%
    13:00 +4°C° 0 mm 6 m/s 611 mmHg 33%
    14:00 +4°C° 0 mm 6 m/s 611 mmHg 30%
    15:00 +5°C° 0 mm 5 m/s 611 mmHg 27%
    16:00 +5°C° 0 mm 4 m/s 611 mmHg 29%
    17:00 +4°C° 0 mm 3 m/s 611 mmHg 32%
    18:00 +4°C° 0 mm 2 m/s 611 mmHg 34%
    19:00 +3°C° 0 mm 2 m/s 611 mmHg 35%
    20:00 +3°C° 0 mm 2 m/s 611 mmHg 37%
    21:00 +2°C° 0 mm 2 m/s 611 mmHg 38%
    22:00 +3°C° 0 mm 1 m/s 611 mmHg 39%
    23:00 +3°C° 0 mm 1 m/s 610 mmHg 41%

    24 Novembro, Sexta-feira

    Tempo Temperatura Precipitação Vento Pressão Humidade
    00:00 +2°C° 0 mm 1 m/s 610 mmHg 42%
    01:00 +2°C° 0 mm 1 m/s 610 mmHg 42%
    02:00 +2°C° 0 mm 1 m/s 610 mmHg 43%
    03:00 +2°C° 0 mm 1 m/s 610 mmHg 43%
    04:00 +2°C° 0 mm 1 m/s 610 mmHg 44%
    05:00 +2°C° 0 mm 1 m/s 611 mmHg 44%
    06:00 -1°C° 0 mm 2 m/s 611 mmHg 45%
    07:00 +1°C° 0 mm 2 m/s 611 mmHg 41%
    08:00 +1°C° 0 mm 3 m/s 612 mmHg 37%
    09:00 +2°C° 0 mm 3 m/s 612 mmHg 33%
    10:00 +1°C° 0 mm 4 m/s 612 mmHg 32%
    11:00 +2°C° 0 mm 5 m/s 612 mmHg 31%
    12:00 +2°C° 0 mm 5 m/s 612 mmHg 30%
    13:00 +2°C° 0 mm 5 m/s 612 mmHg 33%
    14:00 +1°C° 0 mm 6 m/s 612 mmHg 36%
    15:00 +1°C° 0 mm 6 m/s 612 mmHg 39%
    16:00 +1°C° 0 mm 5 m/s 612 mmHg 43%
    17:00 0°C° 0 mm 5 m/s 613 mmHg 48%
    18:00 -1°C° 0 mm 5 m/s 613 mmHg 52%
    19:00 -1°C° 0 mm 4 m/s 613 mmHg 54%
    20:00 -1°C° 0 mm 3 m/s 613 mmHg 55%
    21:00 -1°C° 0 mm 3 m/s 614 mmHg 57%
    22:00 -1°C° 0 mm 3 m/s 614 mmHg 57%
    23:00 -2°C° 0 mm 3 m/s 614 mmHg 57%

    25 Novembro, Sábado

    Tempo Temperatura Precipitação Vento Pressão Humidade
    00:00 -2°C° 0 mm 3 m/s 614 mmHg 57%
    01:00 -2°C° 0 mm 3 m/s 614 mmHg 58%
    02:00 -3°C° 0 mm 2 m/s 614 mmHg 59%
    03:00 -3°C° 0 mm 2 m/s 614 mmHg 59%
    04:00 -3°C° 0 mm 2 m/s 614 mmHg 60%
    05:00 -3°C° 0 mm 2 m/s 614 mmHg 61%
    06:00 -3°C° 0 mm 2 m/s 615 mmHg 62%
    07:00 -3°C° 0 mm 2 m/s 615 mmHg 59%
    08:00 -2°C° 0 mm 3 m/s 615 mmHg 56%
    09:00 -1°C° 0 mm 3 m/s 616 mmHg 52%
    10:00 0°C° 0 mm 3 m/s 616 mmHg 48%
    11:00 +1°C° 0 mm 3 m/s 615 mmHg 44%
    12:00 +2°C° 0 mm 3 m/s 615 mmHg 40%
    13:00 +2°C° 0 mm 3 m/s 615 mmHg 38%
    14:00 +2°C° 0 mm 3 m/s 615 mmHg 37%
    15:00 +2°C° 0 mm 3 m/s 615 mmHg 35%
    16:00 +3°C° 0 mm 2 m/s 615 mmHg 39%
    17:00 +3°C° 0 mm 1 m/s 615 mmHg 42%
    18:00 +2°C° 0 mm 1 m/s 615 mmHg 46%
    19:00 +2°C° 0 mm 1 m/s 616 mmHg 48%
    20:00 +1°C° 0 mm 1 m/s 616 mmHg 51%
    21:00 +1°C° 0 mm 1 m/s 616 mmHg 53%
    22:00 +1°C° 0 mm 1 m/s 616 mmHg 56%
    23:00 0°C° 0 mm 1 m/s 616 mmHg 59%
    Mostrar mais